Regional Weather Roundup
Issued by NWS

Home | Current Version | Previous Version | Graphics & Text | Print | Product List | Glossary On
Versions: 1 2 3 4 5 6 7 8 9 10 11 12 13 14 15 16 17 18 19 20 21 22 23 24 25 26 27 28
000
ASUS45 KCYS 241610
RWRWY

WYOMING REGIONAL WEATHER ROUNDUP
NATIONAL WEATHER SERVICE CHEYENNE WY
1000 AM MDT SAT SEP 24 2016

NOTE:  "FAIR" INDICATES FEW OR NO CLOUDS BELOW 12,000 FEET
WITH NO SIGNIFICANT WEATHER AND/OR OBSTRUCTIONS TO VISIBILITY.

WYZ001-241700-
YELLOWSTONE NATIONAL PARK

CITY           SKY/WX    TMP DP  RH WIND       PRES   REMARKS
LK YELLOWSTONE   N/A     37  36  96 VRB5      30.13S WCI  33
W YELLOWSTONE  NOT AVBL

$$
WYZ002>013-054>058-071-098>099-241700-
NORTHERN WYOMING

CITY           SKY/WX    TMP DP  RH WIND       PRES   REMARKS
JACKSON        MOSUNNY   43  41  93 SE7       30.12R
CODY           RAIN      44  42  93 SW13      30.04R
GREYBULL       LGT RAIN  47  44  90 NW15      29.98R
WORLAND        LGT RAIN  47  43  86 NW16      29.99R
SHERIDAN       RAIN      45  41  86 W25G35    29.94R FOG
BUFFALO        LGT RAIN  43  37  79 NW18G29   29.94R
GILLETTE       RAIN      47  46  97 W17       29.86R FOG
HULETT         DRIZZLE   50  46  87 SW14G20   29.83S
NEWCASTLE      CLOUDY    50  43  76 W10       29.89R

$$
WYZ014>020-022>026-101>103-241700-
CENTRAL WYOMING

CITY           SKY/WX    TMP DP  RH WIND       PRES   REMARKS
BIG PINEY      LGT RAIN  41  38  89 NW8       30.10R
PINEDALE       DRIZZLE   37  36  93 NW16      30.09R WCI  28
DUBOIS         CLOUDY    41  32  70 W18G24    30.04R
LANDER         LGT RAIN  42  41  96 N5        30.07R FOG
RIVERTON       RAIN      40  38  93 N9        30.06R WCI  34
CASPER         LGT RAIN  42  40  92 W17       29.99R
DOUGLAS        CLOUDY    52  38  58 W24G30    29.93R

$$
WYZ021-027>030-104>119-241700-
SOUTHERN WYOMING

CITY           SKY/WX    TMP DP  RH WIND       PRES   REMARKS
EVANSTON       CLOUDY    36  33  89 W14       30.21R WCI  27
FORT BRIDGER   DRIZZLE   40  40 100 W23G30    30.20R WCI  29
ROCK SPRINGS   LGT RAIN  36  34  92 W18       30.11R WCI  26
DIXON          CLOUDY    42  38  88 SW15G21   30.15R
RAWLINS        PTSUNNY   43  36  76 SW22G29   30.07R
SARATOGA       CLOUDY    43  36  75 W17G23    30.10R
LARAMIE        CLOUDY    43  34  70 W5        30.05R
CHEYENNE       FAIR      50  39  66 S10       30.02R
TORRINGTON     FAIR      56  41  57 SW10      29.96R
PINE BLUFFS    FAIR      52  43  71 S14G25    30.02R

$$




USA.gov is the U.S. government's official web portal to all federal, state and local government web resources and services.